Wind_Speed
39 40 38 43 42 42 44 43 38 35 33 32 29 25 21 17 14 13 11 10 7 5
41 41 39 41 47 45 43 42 38 35 34 31 29 26 22 19 17 14 12 10 7 5
41 43 42 45 46 48 48 44 41 38 35 32 29 25 21 18 15 15 13 10 8 6
39 43 42 44 45 47 47 48 45 42 38 34 29 24 20 18 17 15 13 11 10 8
35 40 41 40 41 45 46 50 50 46 40 33 27 23 21 19 17 17 14 12 10 7
36 38 37 37 38 42 43 42 49 48 43 34 27 22 19 17 17 14 13 11 7 5
36 38 40 41 41 40 41 39 32 39 38 33 28 19 18 21 17 14 10 8 5 4
35 35 35 37 38 40 36 38 39 30 34 28 23 21 25 20 15 11 10 8 6 6
31 34 35 32 32 33 33 33 41 35 27 28 27 25 21 15 12 13 11 10 8 7
32 32 33 35 34 33 35 37 34 34 32 29 28 23 18 13 14 12 10 9 7 7
31 30 32 35 36 36 38 37 37 35 32 32 28 19 13 14 14 14 10 8 6 5
37 36 36 36 38 38 38 36 36 35 34 29 23 17 18 18 17 15 11 7 6 5
39 40 39 38 37 36 38 35 39 33 28 24 22 19 20 18 19 16 12 9 6 3
38 38 38 38 38 38 37 36 35 33 30 25 26 23 21 19 19 15 14 10 5 3
Wind_Direction
190 187 187 184 182 182 184 186 185 187 187 182 182 183 181 180 179 179 178 181 187 190
188 188 188 186 189 184 187 188 187 189 185 185 184 183 181 180 176 175 176 175 182 178
188 191 192 188 186 187 189 189 186 185 187 184 183 182 180 172 174 174 166 169 167 156
188 187 189 188 185 188 188 189 184 185 185 183 182 180 173 165 169 168 161 156 156 142
182 184 184 186 187 189 187 187 184 184 181 180 177 174 167 167 174 163 159 159 167 147
181 181 182 185 185 187 183 181 182 180 177 171 171 168 162 165 161 170 172 168 172 148
177 181 183 185 185 185 180 169 170 165 167 163 156 165 161 179 162 169 171 163 157 131
176 178 179 179 175 171 168 162 156 159 154 153 163 169 175 163 156 180 172 158 141 118
165 169 169 165 158 155 152 151 157 156 161 158 159 174 173 153 171 191 179 150 141 123
170 165 162 159 152 151 145 146 144 157 158 166 165 168 165 165 183 177 169 155 148 134
166 163 157 156 151 146 147 148 152 156 164 166 153 162 169 187 166 181 168 158 158 140
167 160 157 155 150 145 145 147 159 166 170 160 151 170 182 171 170 166 167 165 152 142
167 163 160 155 150 150 148 147 155 159 167 158 158 177 178 175 180 167 167 157 152 152
164 163 155 147 150 149 145 147 155 158 163 169 171 179 177 181 183 171 164 158 157 65
Height
726 729 735 739 744 753 760 766 777 782 786 788 790 794 797 800 803 805 809 812 815 817
718 724 730 734 738 745 754 762 773 778 782 786 788 791 794 797 800 804 807 810 813 814
713 718 723 728 733 736 744 756 765 773 779 783 787 789 791 796 801 802 806 808 811 811
706 711 718 722 727 734 740 746 755 764 773 779 783 787 791 792 799 802 805 807 808 808
700 707 713 719 725 731 736 740 747 756 766 775 782 786 788 792 799 798 804 806 807 806
694 702 707 715 722 728 731 739 742 747 756 768 778 783 788 795 794 803 803 804 805 804
688 694 700 707 714 722 728 733 748 742 755 763 769 787 785 795 795 802 804 802 803 802
683 691 698 705 711 717 728 731 737 755 754 761 771 782 793 789 796 803 801 802 803 802
682 687 694 704 711 718 726 737 740 754 763 768 768 784 790 789 798 803 803 802 803 802
678 684 690 699 709 719 726 732 742 754 757 765 775 785 789 790 797 800 803 801 803 800
674 683 689 698 705 715 724 731 740 751 757 768 768 782 786 793 790 799 801 801 801 798
669 678 687 694 702 710 719 731 741 749 763 765 767 779 785 789 791 795 798 799 798 796
663 672 680 689 699 710 716 727 738 749 758 761 769 781 783 785 790 790 794 796 795 794
659 670 677 687 698 708 715 724 737 744 753 761 769 780 780 782 786 787 790 791 792 790